Other Public Products
Issued by NWS Grand Forks, ND

Home | Current Version | Previous Version | Graphics & Text | Print | Product List | Glossary On
Versions: 1 2 3 4 5 6 7 8 9 10 11 12 13 14 15 16 17 18 19 20 21 22 23 24 25 26 27 28 29 30 31 32 33 34 35 36 37 38 39 40 41 42 43 44 45 46 47 48 49 50
497
FPUS83 KFGF 170710
OPUFGF
PRAIRIE TO PINES WEATHER ROUNDUP
NATIONAL WEATHER SERVICE EASTERN NORTH DAKOTA/GRAND FORKS ND
100 AM CST SUN DEC 17 2017

 **SATELLITE DATA USED TO AUGMENT SKY COVER AT AUTOMATED STATIONS**
 *****  WEATHER ACROSS EASTERN NORTH DAKOTA  *****

CITY           SKY/WX    TMP DP  RH WIND       PRES   REMARKS
GRAND FORKS    FAIR      16  14  92 S9        30.04F WCI   4
GRND FORKS AFB FAIR      19  17  93 SW7       30.03F WCI  10
GRND FORKS NWS   N/A     19 N/A N/A S6          N/A  WCI  11
BUXTON         NOT AVBL
DEVILS LAKE    FAIR      21  18  88 SW8       30.01F WCI  11
FARGO          MOCLDY    25  25 100 S7        30.08F FOG     WCI  17
WAHPETON ARPT    N/A     19  18  93 CALM      30.09F
$$

 *****  WEATHER ACROSS CENTRAL AND WESTERN NORTH DAKOTA  *****

CITY           SKY/WX    TMP DP  RH WIND       PRES   REMARKS
JAMESTOWN      FAIR      26  25  96 SW3       30.04F
BISMARCK       FAIR      26  22  84 W5        30.07F WCI  20
MINOT          FAIR      27  18  69 SW10      30.00F WCI  17
MINOT AFB      FAIR      22  17  79 W10       29.99F WCI  12
GARRISON         N/A     25  19  78 W10       30.03S WCI  15
WILLISTON      FAIR      23  17  78 SW7       30.04F WCI  15
DICKINSON      FAIR      23  17  78 W7        30.02F WCI  15
HETTINGER      MOCLDY    20  16  84 CALM      30.06F
$$

 *****  OTHER OBSERVATIONS NORTHEAST NORTH DAKOTA  *****

CITY           SKY/WX    TMP DP  RH WIND       PRES   REMARKS
WALHALLA       FAIR      25  21  86 W5        29.98F WCI  19
LANGDON        NOT AVBL
CAVALIER       FAIR       9   7  92 CALM      29.99F
GRAFTON        NOT AVBL
CANDO          FAIR      12  12 100 W8        30.02S WCI   1
FORT TOTTEN      N/A     25  21  83 S2        29.95S
ROLLA          FAIR      14  14 100 SW6       29.96F WCI   5
RUGBY          NOT AVBL
 ***** THE ABOVE OBSERVATIONS ARE NON NWS ARE NOT QUALITY
        CONTROLLED AND MAY MIS-REPORT RAIN FOR SNOW...
$$

 *****  OTHER OBSERVATIONS SOUTHEAST NORTH DAKOTA *****

CITY           SKY/WX    TMP DP  RH WIND       PRES   REMARKS
COOPERSTOWN    FAIR      23  21  93 SW6       30.04S WCI  16
VALLEY CITY    NOT AVBL
OAKES            N/A     30  30 100 CALM      30.06F
GWINNER          N/A     30  30 100 SW5       30.06F
SHEYENNE NWR     N/A     24  24 100 S3        29.95S
BUFFALO        NOT AVBL
WYNDMERE       NOT AVBL
 ***** THE ABOVE OBSERVATIONS ARE NON NWS ARE NOT QUALITY
       CONTROLLED AND MAY MIS-REPORT RAIN FOR SNOW...
$$

  *****  WEATHER ACROSS NORTHERN MINNESOTA  *****

CITY           SKY/WX    TMP DP  RH WIND       PRES   REMARKS
FLAG ISLAND    CLOUDY    19  18  93 S7        30.00S FOG     WCI  10
WARROAD        FAIR      18  12  79 SW3       30.01F
ROSEAU         CLOUDY    19  16  86 S8        30.00F WCI   9
HALLOCK        FAIR      12  10  92 S7        30.00F WCI   2
THF RVR FALLS  FAIR      20  18  92 S10       30.05F WCI   9
HALSTAD        NOT AVBL
FOSSTON        CLOUDY    23  21  93 S12       30.06F FOG     WCI  12
BAUDETTE       CLOUDY    22  20  92 S12       30.01F WCI  10
WASKISH        CLOUDY    23  21  93 SW5       30.05F WCI  17
CROOKSTON      FAIR      16  16 100 SW6       30.07S WCI   7
$$
  *****  WEATHER ACROSS CENTRAL AND WEST MINNESOTA  *****

CITY           SKY/WX    TMP DP  RH WIND       PRES   REMARKS
BEMIDJI        CLOUDY    24  22  93 SW7       30.05F WCI  16
PARK RAPIDS    CLOUDY    25  23  92 S3        30.06S
WADENA         CLOUDY    25  25 100 CALM      30.07S FOG
DETROIT LAKES  CLOUDY    27  27 100 S5        30.07S FOG     WCI  21
MOORHEAD       FAIR      19  18  93 CALM      30.09F
FERGUS FALLS   FOG       19  19 100 CALM      30.12S VSB 1/4
ELBOW LAKE     FAIR      20  20  98 CALM      30.08F FOG
MORRIS MN      FAIR      25  25 100 CALM      30.07F FOG
STAPLES        CLOUDY    25  25 100 CALM      30.08S FOG
WHEATON        FAIR      27  25  93 CALM      30.10F FOG
$$
  *****  WEATHER ELSEWHERE ACROSS MINNESOTA  *****

CITY           SKY/WX    TMP DP  RH WIND       PRES   REMARKS
DULUTH         CLOUDY    19  15  84 W3        30.08F
INTRNTL FALLS  CLOUDY    21  18  88 S3        30.04S
ELY            CLOUDY    21  18  86 SW6       30.07S WCI  14
CLOQUET        CLOUDY    19  14  79 CALM      30.09F
BRAINERD       CLOUDY    24  20  84 SW5       30.09F WCI  18
HIBBING        CLOUDY    18  16  92 S5        30.08S WCI  11
ALEXANDRIA     CLOUDY    27  26  96 CALM      30.07F FOG
SAINT CLOUD    FAIR      20  16  84 N5        30.09F WCI  13
MINNEAPOLIS    FAIR      21  18  88 NE3       30.09S
$$

  *****  WEATHER ACROSS SOUTH DAKOTA  *****

CITY           SKY/WX    TMP DP  RH WIND       PRES   REMARKS
SIOUX FALLS    FAIR      27  26  96 N5        30.07R WCI  22
BROOKINGS      FAIR      28  26  92 NW5       30.05S FOG     WCI  23
WATERTOWN      MOCLDY    26  26 100 CALM      30.05S
HURON          MOCLDY    30  29  96 NE3       30.06F FOG
SISSETON         N/A     26  24  92 CALM      30.07F
ABERDEEN       MOCLDY    24  24 100 W3        30.08S
MITCHELL       FAIR      30  29  96 E5        30.08S
PIERRE         CLOUDY    31  29  92 N3        30.06F
MOBRIDGE       FAIR      26  23  88 CALM      30.05F
RAPID CITY     CLOUDY    30  25  81 W6        30.05F WCI  24
$$

  *****  SOME WEATHER IN NEARBY STATES *****

CITY           SKY/WX    TMP DP  RH WIND       PRES   REMARKS
GLASGOW MT     FAIR      15  12  88 SE8       30.01F WCI   4
GREAT FALLS MT FAIR      22  13  68 SW17G25   29.94F WCI   8
CHEYENNE WY    SNOW      26  26 100 SE5       29.92S VSB 1/2 WCI  20
SCOTTSBLUFF NE CLOUDY    32  27  81 E8        30.00F WCI  25
OMAHA NE       MOCLDY    33  25  72 N8        29.98S
DES MOINES IA  CLOUDY    34  25  69 NE5       29.98S
DAVENPORT IA   FAIR      29  23  78 NE7       30.04S WCI  22
CHICAGO IL     FAIR      32  30  92 N6        30.05R
EAU CLAIRE WI  CLOUDY    24  22  91 E7        30.08F WCI  16
LA CROSSE WI   CLOUDY    29  25  85 E3        30.10S
$$

  *****  SOME NATIONAL WEATHER *****

CITY           SKY/WX    TMP DP  RH WIND       PRES   REMARKS
LA GUARDIA NY  CLOUDY    35  20  54 NW7       30.23R
RALEIGH NC     FAIR      32  24  72 CALM      30.27R
ATLANTA GA     FAIR      38  29  70 CALM      30.25F
NEW ORLEANS LA CLOUDY    63  61  93 SE9       30.09S
OKLAHOMA CITY  CLOUDY    42  41  96 S17       29.97F
ALBUQUERQUE NM MOCLDY    31  14  49 SE7       29.90R WCI  24
SALT LAKE CITY CLOUDY    31  27  85 NW6       30.08R
LOS ANGELES CA FAIR      58  50  75 VRB5      29.80R
BOISE ID       FAIR      26  20  77 CALM      30.21R
SEATTLE WA     LGT RAIN  43  41  93 S10       30.25F
$$

*** WEATHER ACROSS MANITOBA...SASKATCHEWAN AND ONTARIO ***
                ***ONTARIO***

CITY           SKY/WX    TMP DP  RH WIND       PRES   REMARKS
GERALDTON      LGT SNOW   0  -2  92 S5        30.16F WCI -10
THUNDER BAY    FLURRIES  14  10  85 SW6       30.15F WCI   5
SIOUX LOOKOUT  FRZ DRZL  12   9  85 S5        30.00F WCI   4
TORONTO        MOCLDY    12   5  73 N8        30.25R WCI   1
BIG TROUT LK   CLOUDY    -6  -9  84 S9        29.96F WCI -22
PICKLE LAKE    NOT AVBL
DRYDEN         CLOUDY    14  12  92 SW8       30.00S FOG     WCI   3
KENORA         FOG       12  10  92 S9        29.97F VSB 3/4 WCI   0
$$
                *** MANITOBA***

CITY           SKY/WX    TMP DP  RH WIND       PRES   REMARKS
BRANDON        PTCLDY    12   9  85 SW9       29.93F WCI   0
DAUPHIN        CLOUDY    27  23  86 W9        29.87S WCI  17
ISLAND LAKE    NOT AVBL
PILOT MOUND      N/A     10   9  92 SW8         N/A  WCI  -1
THE PAS        FLURRIES  12   9  85 W7        29.79F WCI   2
THOMPSON       FLURRIES  -2  -6  84 SW3       29.78F
WINNIPEG       CLEAR     10   9  92 S8        29.95F WCI  -1
LYNN LAKE      FLURRIES   1   0  92 SW5       29.68F WCI  -8
CHURCHILL      FLURRIES  -2  -6  84 SW2       29.79F
GILLAM         FLURRIES  -2  -8  78 SW6       29.81F WCI -14
$$
                ***SASKATCHEWAN***

CITY           SKY/WX    TMP DP  RH WIND       PRES   REMARKS
ESTEVAN        CLEAR     19  14  79 SW10      29.99S WCI   8
KINDERSLEY     CLEAR     18  16  93 S6        29.81F WCI   9
LLOYDMINSTER   MOCLDY    21  16  79 SW10      29.70F WCI  10
PRINCE ALBERT  CLEAR     25  18  74 SW9       29.80F WCI  15
REGINA         NOT AVBL
YORKTON        MOCLDY    23  21  93 SW10      29.87S WC



USA.gov is the U.S. government's official web portal to all federal, state and local government web resources and services.